Theta_e
276 276 275 275 275 274 274 274 274 273 273 273 273 273 274 274 274 275 275 275 275 275 275 275 275 275 274 274 274 274 274 274 275 275 276 276 276 276 276 277 279 281 282 283 284 286 289 293 295 296 296 297 297 297 298 298 298 298 299 301 302 303 304 306 313 317 315 316 317 317 319 320 320 321 320 319 320 320 320 320 320 321 320 320 319
275 275 274 274 274 274 273 273 273 272 272 272 272 273 273 273 274 274 274 274 275 275 274 274 274 274 274 273 273 273 273 274 274 275 275 275 275 275 275 277 279 280 281 282 282 284 287 291 294 295 296 296 297 297 298 298 298 298 299 300 301 303 304 306 312 316 313 312 314 315 317 319 318 319 319 318 318 319 319 319 319 320 319 319 319
274 274 274 273 273 273 272 272 272 272 272 272 272 272 272 272 273 273 273 274 274 274 274 274 273 273 273 273 272 272 273 273 274 274 274 274 274 274 275 276 277 278 279 281 282 283 286 289 293 295 295 295 296 297 297 298 298 298 299 300 301 302 304 307 312 314 312 311 312 313 315 317 317 317 318 317 317 318 318 318 318 318 317 317 318
273 273 273 273 272 272 272 271 271 271 271 271 271 271 272 272 272 272 273 273 273 273 273 273 272 272 272 272 272 272 272 273 273 273 273 274 273 273 274 275 275 276 278 281 282 283 284 287 291 294 295 294 295 296 296 298 298 299 299 300 301 302 303 308 313 313 311 311 311 312 314 316 316 316 316 316 316 317 316 316 316 317 317 317 318
273 272 272 272 271 271 271 271 271 271 271 271 271 271 271 271 271 272 272 272 273 272 272 271 271 271 271 271 271 271 272 272 272 273 273 273 273 273 273 274 274 275 277 279 281 281 282 285 289 293 294 294 294 294 295 297 298 299 300 300 301 301 303 309 314 313 311 311 310 311 314 315 315 315 315 315 314 315 315 315 315 316 316 317 317
272 271 271 271 271 271 270 270 270 270 270 270 270 270 270 270 271 271 271 271 272 271 270 270 270 270 270 270 270 270 271 271 271 272 272 272 272 272 273 273 273 275 276 277 278 280 281 283 287 291 293 293 293 294 295 296 299 300 300 300 300 301 304 311 314 312 311 310 309 310 312 313 313 313 314 314 313 313 313 313 314 315 316 316 316
271 271 270 270 270 270 270 270 270 270 270 270 270 270 270 270 270 270 270 270 270 269 269 269 268 268 269 269 269 270 270 270 271 271 271 272 272 272 272 272 273 274 275 276 278 280 281 283 286 290 292 293 293 293 294 296 298 299 299 300 300 301 305 311 312 311 310 310 309 310 311 311 311 311 312 314 313 312 312 311 311 312 315 315 315
270 270 270 270 270 270 270 269 269 269 269 269 269 269 269 269 268 268 268 268 268 268 268 267 267 267 268 268 269 269 269 270 270 271 271 271 271 272 272 272 273 274 275 276 278 280 281 283 286 289 292 293 293 293 293 293 295 295 296 297 298 300 306 311 310 310 310 309 309 310 310 309 309 309 311 312 311 311 311 311 309 310 312 313 313
269 269 269 269 269 269 269 269 269 269 269 269 269 268 268 267 267 267 267 266 266 266 266 266 267 267 267 268 268 269 269 270 270 270 271 271 271 271 272 272 273 274 275 276 278 280 281 283 285 288 291 292 292 292 293 292 292 292 293 294 295 297 305 310 309 309 308 308 308 309 308 308 308 307 308 310 310 310 311 311 310 310 311 310 309
269 269 269 269 269 269 269 269 269 269 268 268 267 267 266 266 265 265 265 265 265 265 265 266 266 266 267 268 268 269 269 270 270 271 271 272 272 272 273 273 273 274 276 277 279 280 282 284 286 288 290 292 292 292 292 292 292 292 292 293 293 295 302 308 309 308 308 307 307 307 307 308 307 307 308 310 311 311 311 310 309 308 309 308 307
268 268 268 268 268 268 268 268 268 268 267 266 266 265 265 264 264 264 264 264 264 264 265 265 266 266 267 268 269 269 269 270 270 271 272 273 274 274 274 275 275 276 277 278 279 281 282 284 286 288 290 291 291 292 292 292 292 292 292 293 294 294 298 305 309 307 307 307 307 306 307 307 306 308 309 310 310 310 310 310 308 307 307 307 306
268 268 268 268 268 268 268 267 267 266 266 265 264 264 263 263 263 263 263 263 264 264 265 265 266 266 267 268 269 269 270 270 271 272 273 274 274 275 275 275 276 276 277 279 280 282 283 285 286 288 290 291 292 292 292 292 292 292 292 293 294 295 297 303 308 308 307 307 306 306 307 306 306 308 309 310 310 310 310 310 307 306 307 307 307
267 267 267 267 267 267 267 266 265 265 264 263 263 262 262 262 262 263 263 263 264 264 265 265 266 267 267 268 269 269 270 270 271 272 273 274 275 275 276 276 276 276 277 279 281 282 284 285 287 288 289 290 291 291 291 292 292 292 292 292 294 296 297 302 308 310 308 308 307 306 307 307 306 308 309 310 310 309 309 308 307 307 307 307 308
267 267 267 267 267 266 265 264 264 263 262 262 262 261 262 262 262 263 263 263 264 265 265 266 266 267 268 268 269 270 270 270 271 272 273 275 276 276 276 276 276 276 276 278 280 282 284 285 286 287 288 289 290 291 291 291 291 292 292 292 293 295 297 302 308 310 310 309 308 308 308 308 308 308 309 310 309 309 308 308 307 308 308 308 308
266 266 266 266 265 265 264 263 262 262 261 261 261 261 261 262 262 263 263 264 265 265 266 266 267 268 268 269 270 270 270 271 272 273 274 275 276 277 277 277 277 277 277 278 280 282 283 283 284 285 286 287 289 290 290 291 291 291 291 292 292 293 297 303 308 309 310 310 309 309 309 309 309 309 309 309 310 309 309 308 307 307 307 307 307
266 266 265 265 264 263 262 261 261 261 261 261 261 261 261 262 262 263 264 265 265 265 266 266 267 268 268 269 270 270 271 272 273 274 275 276 277 277 277 277 277 277 278 279 280 281 282 283 284 284 285 286 288 289 290 290 291 291 291 292 292 293 298 305 307 308 310 311 310 310 310 309 309 309 309 309 309 308 307 306 305 306 307 306 304
265 264 264 263 263 261 261 260 260 260 260 260 261 261 261 262 263 264 264 264 264 265 265 266 266 267 268 269 270 270 271 272 273 275 276 277 277 277 277 277 277 278 279 280 281 282 283 284 284 285 285 286 287 289 290 290 291 291 291 292 292 292 298 306 307 307 310 311 311 311 311 310 310 310 310 309 308 307 306 304 304 305 306 306 303
264 263 263 262 261 260 260 259 260 260 260 260 261 261 262 262 263 264 264 264 264 264 265 265 266 266 267 268 269 270 271 272 274 275 276 277 278 278 278 278 278 279 280 281 282 283 284 284 285 285 286 286 287 288 290 290 291 291 291 292 292 293 298 306 307 306 308 310 310 311 310 310 310 309 309 308 308 307 306 305 304 305 305 305 304
263 262 261 260 260 259 259 259 259 260 260 260 261 261 262 263 263 263 263 263 264 264 264 265 265 266 267 268 269 270 272 273 274 276 277 278 279 279 278 278 278 279 280 281 283 284 284 285 285 286 286 287 287 288 290 291 291 291 291 292 292 293 299 305 306 305 306 307 307 308 308 308 309 308 308 308 308 308 308 306 305 305 305 305 304
261 260 260 259 259 259 259 259 259 260 260 261 261 262 262 263 263 263 263 263 263 263 264 264 265 266 267 268 269 270 271 272 274 275 277 278 279 280 280 279 279 279 280 281 283 284 285 286 286 287 287 288 289 289 290 291 291 291 291 292 292 293 298 305 306 305 305 305 305 306 306 307 307 306 306 307 307 308 308 307 306 306 306 305 304
260 259 259 259 258 259 259 259 259 260 260 261 261 262 262 262 263 263 263 263 263 263 264 264 265 266 266 267 268 269 271 272 273 274 275 277 278 279 280 280 280 280 280 281 283 284 286 286 286 287 288 289 290 290 291 291 291 291 291 291 292 292 295 302 306 305 304 304 304 305 305 305 305 305 305 306 306 307 307 307 307 307 306 305 304
259 258 258 258 258 259 259 259 260 260 261 261 262 262 262 262 262 263 263 263 263 263 264 264 265 265 266 267 268 270 271 272 272 273 275 275 276 277 279 280 281 281 282 282 283 284 285 286 286 287 288 289 290 291 292 292 292 292 292 291 292 292 293 299 305 305 303 303 303 303 303 303 303 303 304 304 305 306 307 307 307 307 307 307 306
258 258 258 258 258 259 259 259 260 260 261 261 261 261 262 262 262 262 262 263 263 263 264 264 265 265 266 268 269 269 270 271 272 272 273 274 275 276 277 279 280 281 282 283 283 284 284 285 286 287 288 289 290 291 292 292 292 292 292 292 292 292 292 297 303 304 302 302 303 302 302 302 302 302 303 304 304 305 306 307 307 307 308 307 307
258 258 258 258 258 258 259 259 260 260 261 261 261 261 262 262 262 262 262 263 263 263 264 264 265 266 267 268 269 269 270 271 271 271 272 273 274 275 276 278 279 280 282 283 284 284 285 285 286 287 289 290 290 291 291 292 292 292 292 292 293 293 294 298 303 303 302 302 302 302 302 302 302 302 303 304 304 305 305 306 306 307 307 307 307
258 258 257 258 258 258 259 259 260 260 260 261 261 261 261 262 262 262 263 263 263 264 264 265 265 266 268 269 269 270 270 270 270 270 271 272 273 275 276 277 278 279 280 281 283 285 286 286 287 288 289 290 290 291 291 291 292 292 292 293 293 293 296 300 303 302 302 301 302 302 302 302 303 303 303 304 304 304 304 304 304 305 306 306 306
258 257 257 257 258 258 258 259 260 260 260 260 260 261 261 262 262 263 263 264 264 264 265 266 266 268 269 269 270 270 270 270 270 271 271 272 273 275 276 277 277 278 279 280 282 284 287 289 288 289 290 291 291 291 291 292 292 293 293 293 294 295 298 301 302 302 302 302 302 302 302 302 303 303 303 303 303 303 303 303 303 303 304 304 304
257 257 257 257 257 258 258 259 259 259 260 260 260 261 261 262 262 263 264 264 265 265 266 267 268 268 269 270 270 270 270 270 271 271 272 273 274 275 275 276 276 277 278 280 281 283 286 289 290 290 291 291 291 292 292 292 293 293 293 294 295 296 299 301 302 303 303 303 302 303 303 302 302 302 302 302 302 302 302 302 302 302 302 303 302
257 256 257 257 257 258 258 258 259 259 259 260 260 260 261 262 263 263 264 264 266 267 268 268 268 269 270 270 270 270 270 270 271 272 273 274 274 275 275 275 276 277 278 279 280 282 284 286 289 291 291 291 292 292 292 292 293 293 294 294 295 297 300 301 302 303 303 303 303 302 301 301 301 301 301 301 301 301 301 302 302 301 301 301 301
257 256 256 256 257 258 258 258 258 258 259 259 260 260 261 262 263 264 264 265 267 268 268 268 269 269 270 270 269 270 270 271 271 272 273 274 274 275 275 276 277 278 279 280 281 282 283 285 288 290 291 291 292 292 292 292 293 293 294 294 296 298 300 301 301 302 303 303 302 301 300 300 300 300 300 301 301 301 301 301 301 301 300 300 301
256 256 256 256 257 257 258 258 258 258 258 259 260 260 260 261 262 264 265 265 266 267 268 268 269 269 270 270 269 270 270 271 271 272 272 273 273 274 275 276 277 278 280 282 282 283 284 286 288 290 292 292 292 292 292 293 293 294 294 294 296 299 300 300 301 302 303 302 302 301 300 300 300 299 300 300 300 300 300 301 301 300 299 300 301
255 255 255 256 256 257 257 257 257 258 258 259 259 259 260 260 261 263 264 265 266 266 267 267 268 269 269 270 269 269 270 270 271 271 271 272 272 272 273 275 275 276 280 283 284 284 285 287 288 290 292 292 293 293 293 293 293 294 295 296 297 299 300 300 301 302 302 302 302 301 300 300 300 299 299 300 300 299 299 300 300 300 299 300 301
255 255 255 256 256 257 257 257 257 257 258 258 259 259 259 259 260 261 262 263 264 265 265 266 267 268 268 269 269 269 269 269 270 270 270 270 271 270 271 272 273 274 277 281 283 284 286 288 289 291 292 293 293 293 294 294 294 295 296 297 298 299 299 300 301 301 301 301 301 301 300 300 300 299 299 300 299 299 299 299 299 299 299 300 301
255 255 255 256 256 256 256 256 256 257 257 258 258 258 258 259 259 260 260 261 263 263 263 264 265 266 267 268 268 268 268 268 269 269 269 269 269 268 268 269 271 271 271 273 274 276 278 280 283 286 289 292 294 295 295 295 295 296 297 298 298 299 300 300 301 301 301 301 301 300 300 300 299 299 299 299 299 299 298 298 299 299 299 299 300
255 256 255 256 256 256 256 256 256 256 257 258 258 258 258 258 258 258 259 260 261 261 262 262 263 264 266 267 267 267 267 267 267 268 268 267 267 266 266 266 268 268 267 267 269 271 272 273 275 276 278 282 288 292 295 296 296 296 297 298 299 299 300 300 300 300 301 301 300 300 300 299 299 299 299 299 299 298 298 298 298 298 298 299 299
256 256 256 256 256 256 256 256 256 256 257 258 258 258 258 258 258 258 258 259 259 259 260 260 261 263 264 266 266 265 265 265 265 266 266 266 266 265 263 263 264 265 265 265 266 268 270 271 271 272 273 274 278 282 288 294 297 297 297 298 299 299 299 299 300 300 300 300 300 300 299 299 299 299 299 299 298 298 298 298 298 298 298 299 299
257 256 256 256 256 256 256 256 256 256 257 257 257 257 257 257 257 257 258 258 258 259 259 259 259 261 263 264 264 263 263 263 263 263 264 265 264 263 262 262 262 263 263 264 265 266 268 269 270 270 271 272 273 274 277 283 291 296 298 299 299 299 299 299 299 300 300 300 300 299 299 299 299 299 299 299 298 298 298 298 298 298 298 298 298
258 257 256 257 257 256 256 256 256 256 256 256 256 257 257 257 257 257 257 257 258 258 258 258 259 259 261 263 263 262 261 261 261 261 261 262 262 261 261 261 262 262 262 263 264 265 266 268 269 270 270 271 272 272 273 275 281 289 296 299 299 299 299 299 299 300 300 300 300 299 299 299 299 298 299 298 298 298 298 298 298 298 297 297 298
258 257 256 257 257 256 256 256 256 256 256 256 256 256 256 256 256 256 257 257 257 257 257 258 258 258 259 262 263 261 259 259 259 259 259 259 259 260 261 261 261 262 262 263 263 264 265 267 268 269 270 270 270 271 272 273 275 281 289 297 300 299 299 299 299 299 299 300 299 299 298 298 298 298 298 298 298 298 298 298 298 297 297 297 297
258 257 256 256 256 256 256 255 255 255 255 255 255 255 255 256 255 256 256 256 256 256 256 257 257 257 258 261 263 260 258 257 257 257 257 257 257 259 260 261 261 262 262 263 263 264 265 267 268 268 269 270 270 270 271 272 273 276 282 291 297 299 299 299 299 299 299 299 299 299 298 298 298 298 298 298 298 298 298 297 297 297 297 296 297
259 258 257 256 256 256 256 256 255 255 255 255 255 255 255 255 255 255 255 256 256 256 256 256 256 256 258 261 263 260 257 257 256 256 256 256 256 258 259 260 261 262 262 263 264 264 265 266 267 268 268 269 270 270 270 271 271 273 276 282 290 296 299 299 299 299 299 299 299 299 298 298 298 298 298 298 298 298 298 297 297 297 297 297 297
259 259 258 257 257 257 257 256 255 255 254 254 254 254 254 254 254 254 255 255 255 255 255 255 256 256 257 261 262 260 257 256 256 256 256 256 256 257 258 259 260 261 262 263 263 264 265 266 266 267 268 268 269 269 270 270 270 271 273 275 280 287 293 297 298 299 299 299 299 299 299 298 298 298 298 298 298 298 298 297 297 296 297 297 297
260 259 259 258 258 258 258 257 256 256 255 255 254 254 254 254 254 254 254 255 255 255 255 255 255 256 257 259 260 258 256 256 256 256 256 256 256 256 257 259 260 261 262 263 263 264 265 266 266 267 267 268 268 269 269 269 270 270 271 272 274 277 281 286 291 295 298 299 299 299 299 299 298 298 298 298 298 298 297 297 297 296 296 296 296
259 259 258 258 258 258 257 257 257 256 256 255 254 254 253 253 253 253 253 254 254 254 254 254 254 255 256 257 258 257 256 256 256 255 255 256 256 256 257 258 259 261 262 263 264 264 265 265 266 266 267 267 268 268 268 269 269 269 270 270 271 272 274 278 282 287 292 296 298 299 299 298 298 298 298 298 298 297 297 297 297 296 296 296 296
259 259 258 258 258 257 257 257 257 256 256 255 255 254 254 253 253 253 253 253 253 253 254 254 254 254 255 255 256 256 256 255 255 255 255 256 256 256 256 257 258 260 262 263 263 264 265 265 266 266 266 267 267 268 268 268 269 269 269 269 270 270 272 274 276 280 285 291 295 298 298 298 298 298 298 297 297 297 297 297 296 296 296 296 295
259 259 258 258 258 258 257 257 257 256 256 256 256 255 255 254 253 252 252 253 253 253 253 253 253 253 254 254 254 254 254 255 255 256 257 257 257 258 258 258 258 259 261 262 263 264 264 265 266 266 266 267 267 267 268 268 268 269 269 269 269 269 270 272 274 278 283 289 293 295 297 298 298 298 298 297 297 297 297 297 296 296 296 296 295
258 258 258 258 258 258 257 257 257 256 256 256 255 255 254 254 253 252 252 252 252 252 252 252 253 253 253 253 253 254 254 254 255 257 258 258 259 259 260 260 259 260 260 262 263 263 264 265 265 266 266 266 267 267 267 268 268 268 269 269 269 269 270 271 274 278 283 287 291 293 295 295 296 297 297 297 297 297 297 296 296 296 295 295 295
258 258 258 258 257 257 257 257 257 256 256 255 254 254 254 254 253 253 252 252 252 252 252 252 252 252 253 253 253 254 254 254 255 256 257 258 259 260 260 261 261 261 261 262 262 263 263 264 265 266 266 266 266 267 267 268 268 268 268 268 268 269 269 271 273 276 280 284 288 291 293 293 294 294 295 295 295 295 295 295 295 295 295 294 294
257 257 257 257 257 257 257 257 257 256 256 255 254 254 253 253 253 253 252 252 252 252 252 252 252 252 252 253 253 253 254 255 256 256 257 259 260 260 261 261 262 261 261 262 262 263 263 264 264 265 266 266 266 267 267 267 268 268 268 268 268 268 269 271 272 274 277 280 284 286 288 289 290 291 292 293 293 293 293 293 293 293 293 293 293
257 257 257 257 257 257 256 256 256 256 255 255 254 254 254 253 253 253 252 252 252 252 252 252 252 252 252 252 253 254 255 255 256 256 257 258 259 260 261 262 262 262 262 261 261 262 263 263 264 265 266 266 266 266 267 267 267 268 268 268 268 268 269 271 272 273 275 277 279 281 283 283 284 286 287 289 291 292 292 292 292 292 292 292 292
257 257 257 257 256 256 256 256 256 256 255 254 254 254 254 254 253 252 252 252 252 252 252 252 252 252 252 252 253 254 254 255 255 256 257 258 259 260 261 261 262 262 262 261 261 262 262 263 263 264 265 266 266 266 266 267 267 267 267 267 267 268 269 270 271 272 273 274 275 277 278 279 279 280 281 282 285 286 287 289 290 291 291 292 292
257 257 257 257 256 256 256 256 256 256 255 255 254 254 254 254 253 252 252 252 252 252 252 253 253 253 253 253 253 254 254 255 256 256 257 258 259 260 260 261 261 262 262 262 262 262 262 263 263 264 265 266 266 266 266 266 267 267 267 267 267 267 268 268 269 270 271 272 273 273 274 275 275 275 276 276 278 279 280 282 284 285 286 288 289
Wind_Speed
23 24 25 26 27 28 29 30 29 29 29 29 30 31 32 31 31 32 33 33 33 33 34 35 36 36 35 34 34 33 33 34 33 32 33 33 30 28 30 32 33 32 31 32 32 31 30 31 31 30 29 29 30 31 31 32 32 32 32 30 30 33 31 23 16 11 16 29 35 40 49 51 48 51 52 54 59 59 56 57 58 58 56 54 54
23 25 26 26 27 28 29 30 30 30 31 31 31 31 31 31 31 32 32 33 32 32 33 34 34 34 34 33 33 33 33 33 33 32 33 34 32 30 31 32 31 29 27 29 32 31 29 30 31 30 30 30 30 31 31 32 32 32 32 30 29 32 33 29 22 11 9 20 31 36 45 49 46 48 53 55 57 57 54 55 58 59 59 56 55
23 24 25 26 27 29 30 30 30 31 31 31 31 31 32 32 31 31 31 32 32 31 31 32 33 33 33 32 31 32 33 33 32 32 33 34 34 32 32 31 30 31 30 29 31 31 29 30 31 31 30 29 29 30 32 34 33 32 32 30 29 30 33 37 30 17 10 16 29 34 36 42 46 50 55 58 59 54 52 55 58 59 59 58 57
23 24 25 27 28 29 30 31 31 31 31 31 32 33 33 33 31 29 30 31 31 28 28 30 32 32 31 31 30 31 32 32 32 33 33 34 34 33 33 32 31 33 33 31 29 29 28 29 30 30 29 27 27 29 31 32 32 32 31 29 28 28 32 42 40 30 19 14 24 35 38 39 44 51 55 56 56 54 51 52 54 55 56 58 58
22 23 25 27 29 29 30 31 31 31 32 33 33 34 34 32 30 28 29 30 29 28 28 29 29 30 29 29 30 30 30 30 31 33 33 33 34 34 33 33 33 33 33 32 30 29 29 31 31 30 29 27 27 29 32 32 31 31 29 27 27 27 33 41 41 39 29 19 21 32 40 40 39 47 53 52 48 47 48 49 50 50 51 53 55
22 23 24 26 28 29 30 30 31 33 33 34 34 34 33 31 30 29 29 30 28 28 29 29 28 29 29 29 29 30 30 30 32 33 34 34 34 34 34 34 34 34 33 34 33 32 33 34 34 33 30 28 28 28 30 30 29 28 27 26 25 27 35 38 40 38 33 30 28 30 33 35 35 38 48 53 46 40 42 43 45 46 47 48 49
22 23 24 25 27 28 29 30 32 33 33 34 34 34 32 30 30 30 29 28 28 30 30 30 29 29 29 29 29 30 30 31 32 33 34 34 33 34 34 34 34 34 34 34 33 33 35 34 36 36 33 30 30 29 27 26 25 23 23 24 24 27 33 35 38 35 32 30 29 30 31 34 36 36 45 54 49 43 44 39 34 39 46 48 49
22 23 24 25 26 28 30 31 32 32 33 33 33 31 29 30 31 30 28 27 28 29 29 30 30 29 29 30 30 30 30 30 31 32 32 33 33 34 33 33 34 33 34 35 32 32 34 34 35 35 33 32 31 30 27 23 21 21 21 21 22 28 30 34 36 32 30 24 22 29 31 31 33 35 41 45 38 34 42 42 36 37 43 46 48
22 24 24 25 27 29 30 32 32 32 33 32 30 30 30 31 31 30 28 27 28 29 29 30 31 31 31 31 31 30 29 30 30 30 31 31 32 32 32 32 33 33 34 34 32 32 33 33 35 35 35 35 34 32 30 26 23 22 22 22 23 28 28 32 34 28 24 18 16 23 23 21 26 29 31 35 33 33 42 43 37 38 41 40 42
22 23 24 25 28 29 30 31 32 32 32 31 32 33 33 33 31 30 29 30 30 31 31 31 31 32 32 31 31 30 28 28 29 30 31 32 31 31 31 30 31 32 32 32 31 31 32 31 33 35 36 37 36 34 33 30 27 25 24 24 24 27 26 25 31 28 21 14 13 18 14 13 24 31 31 36 41 42 42 39 33 34 37 31 28
21 22 25 27 28 29 30 30 31 32 32 32 33 33 33 33 32 31 32 32 32 32 31 31 31 31 31 30 30 29 29 29 30 31 32 33 33 33 32 31 31 32 32 32 31 31 31 30 30 32 35 36 35 33 32 30 29 28 28 29 28 30 30 22 28 30 24 17 16 20 15 12 26 38 39 39 41 41 42 42 38 35 33 24 16
21 23 25 27 28 28 29 30 31 32 32 32 32 33 33 33 32 33 34 33 34 33 31 30 30 30 30 30 29 29 29 30 31 31 32 32 33 34 34 32 31 32 32 32 30 30 30 29 29 30 32 32 31 30 30 30 30 30 31 33 32 34 39 30 32 37 30 24 19 21 23 22 29 39 41 41 43 43 42 41 40 38 34 28 21
22 24 25 26 27 27 28 30 31 31 30 30 32 33 33 33 33 33 34 34 34 32 31 31 32 31 30 29 29 29 30 30 31 32 32 32 33 34 33 31 31 32 33 33 31 29 28 26 26 28 31 31 30 29 29 29 30 31 31 34 33 34 43 37 42 50 43 38 30 28 36 38 35 39 47 51 49 44 40 37 41 43 39 36 35
22 24 25 26 27 28 29 29 29 29 30 31 32 33 32 33 33 33 34 35 34 32 33 35 33 30 28 28 28 30 31 31 32 33 33 33 32 32 30 29 31 32 34 34 32 29 27 26 26 28 30 32 31 29 29 27 28 29 29 33 34 35 42 36 47 57 52 50 43 39 45 50 48 49 55 58 54 49 46 45 46 45 39 36 37
21 23 25 26 28 29 28 27 27 29 31 32 33 33 32 32 33 34 34 34 31 30 31 32 29 27 26 27 28 30 32 32 32 33 34 34 34 32 29 28 29 31 33 34 33 30 28 28 30 32 33 34 33 30 29 27 26 28 28 30 33 35 37 33 47 55 55 57 54 50 51 54 57 56 56 58 59 58 54 51 48 42 34 29 29
22 23 25 27 28 26 25 27 29 31 32 33 33 33 32 33 34 34 33 31 28 29 29 28 28 28 28 28 29 31 33 33 32 33 35 35 33 30 27 25 27 30 31 32 32 31 31 31 32 34 35 36 35 32 30 28 26 26 27 29 31 34 32 35 46 51 57 60 60 60 59 57 58 60 61 61 57 52 44 40 41 40 33 26 23
22 23 25 27 26 24 23 27 31 32 32 33 33 33 33 34 33 31 31 31 30 30 30 29 28 28 28 29 30 32 34 35 34 34 35 34 31 28 25 23 25 27 29 29 30 30 31 31 31 32 33 34 34 32 30 27 26 25 26 26 26 31 29 34 42 46 54 59 59 62 63 61 61 64 67 65 57 51 43 35 37 41 32 19 14
22 24 25 26 26 25 26 28 31 32 32 32 34 34 34 33 31 30 31 32 32 31 30 30 29 28 28 31 32 32 35 37 36 35 35 33 29 26 24 22 23 24 26 27 28 28 29 31 32 32 33 34 33 32 30 28 26 25 23 22 21 26 25 31 38 39 46 52 57 61 60 60 63 62 62 61 59 60 54 43 43 43 31 19 17
23 23 25 26 25 26 28 29 30 31 32 33 33 34 34 32 31 32 32 32 32 31 30 31 31 29 29 30 31 31 33 36 35 34 34 32 29 26 24 22 22 23 24 25 27 29 31 32 31 32 33 34 34 33 31 29 27 25 22 19 17 22 24 30 37 35 36 39 45 52 56 59 63 62 60 59 60 65 65 59 55 48 35 29 27
23 23 24 26 27 28 29 29 30 31 32 33 33 32 32 32 32 33 32 31 31 32 31 30 31 30 29 29 30 30 31 32 33 33 33 31 29 26 23 22 22 23 24 24 25 26 27 27 28 29 31 32 34 35 33 31 29 26 24 20 18 22 25 29 39 37 32 31 31 37 46 50 52 55 58 60 61 63 62 63 63 58 48 39 35
24 24 25 27 28 28 28 28 30 31 30 31 32 31 31 31 32 32 31 32 31 32 31 30 29 29 29 29 29 28 28 31 33 33 32 31 31 29 24 22 24 25 24 23 24 24 22 22 26 28 29 29 31 32 34 33 30 28 27 27 27 28 30 26 38 39 32 32 32 31 36 39 39 44 52 56 59 58 54 57 64 64 58 49 42
24 25 26 27 27 28 29 28 29 30 30 30 31 32 31 31 30 30 30 31 31 30 29 28 28 29 29 27 26 26 28 30 31 32 33 32 33 33 30 25 24 25 24 23 23 24 23 23 26 27 27 28 29 30 32 31 29 28 31 32 32 33 36 30 33 38 30 31 34 31 31 34 34 39 46 50 53 54 50 54 62 63 60 59 56
24 25 26 27 27 28 28 29 29 29 29 30 30 31 31 30 30 30 29 29 28 27 27 28 28 28 26 23 24 27 28 27 28 32 35 35 34 34 32 30 29 26 22 23 26 28 27 27 28 28 27 27 28 28 28 28 27 29 31 32 33 35 37 31 30 36 31 29 32 30 30 33 34 36 42 45 49 53 52 52 58 60 56 57 61
25 25 25 25 26 27 27 28 28 28 29 31 30 30 30 29 29 29 27 27 26 24 26 28 26 23 22 24 27 27 26 26 29 32 34 34 34 35 33 31 31 29 24 21 25 29 30 30 30 30 30 29 29 29 28 27 28 29 29 30 33 35 33 28 29 34 30 26 27 27 30 34 37 40 45 49 52 55 53 48 50 53 49 47 50
24 24 25 25 25 26 26 27 27 27 28 30 30 30 30 29 28 28 27 26 24 24 26 27 22 18 20 24 26 26 26 28 30 30 31 34 35 35 33 31 31 29 26 24 24 26 30 35 35 32 32 31 30 28 28 28 29 28 28 30 32 32 29 27 30 30 27 24 25 27 32 38 43 46 50 52 50 49 46 40 39 41 37 35 39
23 23 24 24 24 25 25 26 27 28 28 28 28 29 29 28 27 26 25 24 24 27 30 28 21 17 20 23 24 25 27 28 29 30 34 37 36 33 31 32 31 28 26 25 25 26 26 29 35 34 32 30 28 26 26 26 25 25 27 30 31 30 28 27 28 28 26 27 29 31 35 39 41 41 43 44 43 43 43 39 36 36 33 32 35
22 22 23 24 24 23 24 25 26 28 29 28 27 27 28 28 26 24 25 26 27 30 32 29 21 16 16 18 22 25 26 26 27 30 34 35 34 32 31 30 29 26 24 23 23 24 25 23 26 30 29 27 26 25 24 23 21 21 24 26 28 29 29 29 32 33 32 34 33 32 33 35 35 35 38 40 41 43 45 43 38 36 35 35 34
21 21 21 22 23 22 23 24 25 27 29 29 27 26 27 28 26 25 26 28 30 31 31 27 23 20 17 18 22 23 22 23 25 28 31 33 34 34 33 31 28 25 24 23 23 23 24 23 22 22 24 23 22 22 21 20 19 21 23 24 24 27 31 32 33 33 32 32 31 28 28 31 32 35 38 39 39 42 44 43 41 38 36 34 30
20 20 20 21 22 22 23 23 24 24 26 28 28 26 25 25 25 26 28 29 30 31 30 26 26 26 24 22 24 21 19 22 29 33 34 34 34 33 33 33 32 30 28 26 24 23 21 18 17 15 15 15 15 15 16 16 18 20 23 23 23 26 29 29 28 28 29 29 29 29 30 31 32 34 36 36 36 40 42 42 40 38 36 33 29
19 18 19 20 21 21 22 23 23 24 24 24 27 28 26 23 21 23 27 30 30 30 29 28 30 31 27 26 27 25 24 28 34 35 34 34 33 32 31 31 31 32 31 26 22 18 16 13 12 11 10 10 9 9 11 12 13 16 19 22 24 25 28 28 28 29 31 32 33 33 34 33 31 32 34 33 34 38 42 43 40 37 35 31 27
17 17 18 19 19 19 20 21 22 23 23 23 24 26 28 27 24 23 25 28 29 31 31 31 33 33 31 31 31 29 29 33 35 35 34 34 35 34 30 29 30 30 25 19 16 13 10 8 8 8 9 8 7 8 10 11 12 13 15 19 23 25 27 29 30 30 30 33 34 34 34 33 33 33 33 33 33 35 38 39 38 37 36 33 28
14 16 17 18 18 19 19 20 21 21 22 23 23 23 24 26 28 30 30 28 26 27 30 34 35 35 35 36 36 34 32 34 35 36 36 35 37 37 31 29 33 35 26 13 5 6 7 6 6 7 8 7 8 10 11 11 12 14 14 15 19 24 27 30 32 32 32 32 33 33 33 34 35 35 35 35 33 32 33 34 34 34 34 33 30
11 13 15 16 17 19 19 19 20 21 21 21 23 23 22 21 23 29 35 35 32 31 32 34 36 36 36 38 40 39 36 36 36 37 38 38 39 38 33 29 35 41 37 24 14 11 10 10 8 8 9 7 8 11 13 14 14 16 17 17 18 23 28 31 33 33 32 32 32 33 34 34 34 34 34 34 33 32 32 32 33 32 30 28 27
9 10 11 13 15 17 18 18 19 20 20 20 21 22 23 22 21 23 28 32 34 37 39 39 38 37 35 37 42 43 41 39 38 37 38 40 38 38 40 42 44 46 41 30 18 14 13 13 12 13 15 13 10 9 13 17 17 16 18 20 22 24 26 29 31 30 30 31 31 31 32 33 33 32 31 31 32 31 32 32 32 30 29 28 26
8 9 10 12 13 15 16 17 18 18 19 19 20 20 21 22 23 22 22 22 23 27 33 37 38 37 34 35 41 43 42 42 41 39 39 39 39 42 46 45 39 37 36 30 22 18 16 15 13 14 15 15 15 15 11 13 17 19 19 19 21 23 23 25 29 30 30 29 29 30 33 34 35 35 34 32 30 29 29 31 33 32 31 30 28
8 9 11 12 13 14 15 16 16 17 16 17 18 20 20 21 22 22 22 22 21 22 26 31 35 36 35 36 41 43 42 40 38 38 38 38 39 42 39 30 23 23 24 25 23 21 18 17 17 17 18 17 17 20 21 17 13 18 22 21 19 20 22 25 28 29 30 29 29 31 33 33 34 35 34 32 32 32 31 32 33 32 32 31 28
8 9 11 12 13 13 14 15 15 15 15 16 18 19 20 21 22 22 22 22 22 22 25 29 33 36 38 41 43 44 42 38 39 44 47 44 42 40 36 30 27 26 27 29 29 24 22 22 23 23 23 22 22 23 24 24 23 15 16 22 20 19 23 28 29 29 29 29 29 30 31 31 33 35 33 30 30 31 32 33 33 31 33 34 31
6 8 9 10 10 11 14 15 16 16 17 18 19 20 20 20 21 22 22 23 23 23 25 28 29 31 35 37 40 43 46 48 52 57 59 55 47 39 35 34 33 31 32 37 36 31 28 28 27 25 25 25 26 26 25 26 29 26 13 15 22 24 25 28 30 30 29 27 27 29 31 31 31 34 33 31 29 29 29 31 31 29 30 32 30
7 7 7 7 8 10 12 14 16 17 19 19 20 20 20 20 21 21 21 22 23 23 24 25 27 29 32 33 37 42 45 46 46 47 51 53 48 38 33 33 33 32 34 37 36 33 31 29 28 27 27 27 27 27 27 28 29 30 22 7 15 25 26 25 25 27 28 27 27 29 30 30 32 34 34 32 31 31 30 30 31 30 29 30 31
8 8 8 7 8 10 12 14 15 17 18 19 20 20 20 20 20 20 20 20 21 22 24 24 25 30 33 33 35 38 38 36 38 41 44 49 48 41 34 33 32 32 33 33 33 32 31 29 29 29 29 29 28 28 28 29 31 32 29 21 6 10 22 26 26 26 27 27 28 30 31 32 33 34 33 32 33 34 34 32 33 33 33 34 36
7 8 8 9 9 10 12 14 15 16 17 17 18 19 19 19 20 19 19 20 20 22 24 24 26 31 35 34 35 37 36 36 41 45 45 47 49 43 35 33 33 32 33 33 34 33 31 31 31 31 30 30 31 29 28 30 32 33 32 29 23 12 3 16 23 27 29 29 28 28 30 32 33 32 32 33 34 34 34 33 32 33 33 34 35
7 7 8 9 9 11 13 14 14 15 16 17 18 18 18 19 20 20 19 20 20 21 23 25 28 33 37 35 36 39 41 42 45 47 47 50 52 45 37 35 35 34 33 34 34 34 33 32 31 32 32 32 32 32 31 31 31 33 33 31 28 25 19 9 2 13 22 27 28 28 28 30 32 33 34 34 33 32 31 31 30 31 31 31 31
6 7 8 8 9 10 12 13 14 15 16 17 18 18 18 19 20 20 19 20 21 21 22 25 28 33 37 37 38 43 46 46 47 47 46 49 51 47 40 39 38 36 35 36 36 35 34 33 33 33 33 33 33 32 32 31 29 30 32 32 30 28 26 22 16 6 4 15 24 29 29 29 30 31 31 31 31 31 31 31 31 31 31 30 30
6 7 7 7 8 9 10 12 13 14 15 15 16 17 19 20 20 21 20 20 21 21 22 24 27 31 35 38 41 44 45 45 46 46 45 48 50 48 43 42 41 38 36 37 38 37 35 35 36 36 35 35 35 34 33 33 32 31 31 32 33 32 29 26 22 15 7 4 14 22 27 29 30 30 29 30 30 29 29 29 30 30 30 30 29
6 6 6 7 8 9 9 11 12 13 14 15 16 18 19 20 20 21 20 20 21 22 22 24 26 28 32 36 38 40 41 42 44 45 46 47 49 49 47 47 46 41 36 36 38 39 38 36 38 39 39 38 38 38 37 37 36 34 33 33 34 32 30 26 23 17 10 2 7 15 20 23 26 27 27 29 31 30 29 29 30 30 29 29 28
5 5 6 7 8 9 10 11 12 13 14 15 16 17 18 19 20 20 20 20 20 21 22 24 26 27 29 33 35 37 38 39 41 44 45 46 47 49 49 49 48 44 39 36 37 39 40 39 39 39 40 40 40 40 40 40 39 38 38 37 36 34 31 27 24 20 15 8 6 11 16 17 19 21 22 24 27 28 28 28 29 28 28 28 28
4 5 5 6 7 9 10 10 11 13 14 15 15 16 17 18 19 20 20 20 20 21 22 24 25 26 27 30 33 35 36 38 39 41 42 43 45 46 47 48 49 48 43 38 37 39 41 41 40 39 40 41 42 42 42 42 42 42 41 41 40 39 35 31 28 26 21 15 11 11 14 15 16 17 18 20 21 22 22 23 24 25 26 26 25
3 4 4 6 7 8 9 10 11 12 13 14 14 14 15 16 17 18 20 20 20 21 23 24 25 26 27 29 31 32 34 36 37 38 39 40 42 43 44 45 47 48 45 42 40 41 42 42 41 40 41 43 44 43 43 44 43 43 43 43 43 42 39 36 34 31 27 23 20 17 15 15 14 15 16 19 20 21 21 20 21 22 22 22 22
2 3 4 5 6 8 9 10 11 11 12 13 13 13 14 15 16 16 18 19 19 21 22 23 24 25 26 27 30 32 33 34 35 36 37 38 38 40 41 43 44 47 47 44 42 41 42 43 42 40 40 43 45 45 45 45 45 45 45 44 43 43 42 40 38 35 33 30 28 25 23 21 19 16 14 15 17 19 20 21 21 22 22 21 21
1 2 3 4 6 7 8 9 9 10 10 11 12 12 13 15 15 15 16 17 18 20 21 22 23 24 24 26 28 30 31 32 33 33 35 36 36 37 39 41 42 45 47 45 42 41 41 43 42 40 40 41 44 46 46 46 46 45 45 44 45 45 44 43 41 39 37 35 33 31 30 28 27 25 21 18 16 16 16 16 18 20 21 21 22
1 1 2 4 5 6 7 7 9 10 10 10 11 12 13 14 14 14 15 15 17 19 20 21 21 23 23 24 26 27 28 30 31 31 32 33 34 34 37 39 40 42 44 45 43 42 42 42 43 42 40 39 42 46 47 46 46 46 46 46 47 47 46 45 44 42 40 38 37 36 34 34 33 31 28 25 23 21 20 18 17 16 16 16 18
Wind_Direction
322 320 319 320 319 319 320 318 316 314 311 309 306 304 302 299 297 297 295 293 292 292 290 288 287 286 285 284 282 279 278 276 275 275 273 274 279 283 283 282 280 277 278 279 281 284 281 268 254 247 245 243 243 244 243 245 244 245 246 239 232 233 235 240 244 228 191 176 170 172 175 173 172 171 169 169 171 173 174 174 173 172 173 175 177
319 319 319 319 318 319 318 317 316 315 313 312 309 306 304 301 299 298 295 292 291 290 289 288 287 285 282 281 280 279 278 275 273 273 273 273 276 280 280 277 276 278 279 277 277 279 281 274 261 252 250 246 244 245 245 245 244 245 245 240 236 235 235 241 237 211 178 168 164 170 174 171 169 171 170 169 170 173 174 174 174 174 175 176 178
318 318 318 318 318 318 317 317 317 316 315 312 309 307 306 304 301 296 292 292 291 288 288 288 287 284 281 278 279 278 276 274 272 271 271 271 273 275 275 273 277 281 280 276 274 275 277 276 266 254 250 250 248 247 247 245 242 245 246 242 240 240 242 245 233 197 162 165 164 167 172 171 169 170 172 171 171 172 173 173 174 175 176 178 179
317 317 317 317 318 318 318 319 319 317 315 312 309 308 307 305 301 295 292 291 289 287 288 288 286 285 280 278 279 278 274 273 272 269 269 269 269 271 272 272 274 276 274 274 274 273 274 276 270 257 248 250 252 252 252 249 244 243 246 247 245 247 252 246 222 188 164 163 167 168 169 171 171 170 171 171 170 172 172 172 173 173 175 177 178
316 316 317 318 319 320 321 321 319 317 314 311 309 309 307 304 300 296 293 291 288 288 289 288 286 284 281 278 279 278 275 273 272 269 268 268 267 269 269 270 271 270 270 271 272 273 272 274 273 262 250 249 252 254 255 252 248 245 247 254 252 252 257 243 211 183 169 161 163 170 170 170 171 170 169 168 168 168 168 169 170 171 172 175 177
314 316 318 319 319 320 321 320 319 316 314 312 310 309 306 302 299 297 294 291 289 289 289 287 285 284 281 279 279 278 275 273 271 269 268 267 267 267 267 268 269 267 267 268 268 270 269 268 270 264 254 249 250 253 254 252 250 246 249 259 258 260 259 235 198 177 171 163 159 166 169 167 165 167 169 168 164 161 161 164 168 169 170 172 174
315 318 320 320 319 319 320 319 317 315 313 311 310 308 304 301 300 298 294 291 290 289 288 287 285 283 281 280 278 277 275 272 270 268 267 266 266 265 266 266 266 265 266 266 264 264 264 263 265 263 255 249 249 251 254 259 259 254 257 263 265 270 257 221 186 171 169 165 162 163 166 167 164 165 168 167 164 161 159 158 161 168 171 172 173
319 322 323 321 320 320 320 318 315 313 312 310 309 306 304 303 302 299 295 292 291 290 289 288 286 284 281 279 277 275 273 271 269 266 265 265 264 264 265 265 265 265 265 265 262 261 263 261 262 263 257 249 249 251 254 262 271 274 275 274 277 278 251 203 176 168 167 165 165 164 164 165 163 163 165 164 162 163 163 161 161 167 171 172 175
324 325 323 321 321 321 319 317 315 313 311 310 308 306 305 305 304 301 297 294 293 292 291 289 288 286 283 279 275 273 272 269 267 264 263 263 262 262 263 262 264 265 265 265 263 261 262 261 260 262 260 253 251 253 256 262 269 277 283 282 283 283 251 196 171 165 164 162 167 164 161 162 160 159 161 164 165 165 166 165 164 165 167 169 175
327 325 322 321 321 320 318 316 314 313 311 310 309 308 307 307 305 302 299 297 295 294 293 290 288 285 283 280 275 272 270 267 266 264 262 263 262 262 262 260 261 263 264 265 264 262 262 261 259 261 261 256 254 255 259 264 268 274 281 280 281 283 261 203 169 162 161 158 163 162 159 163 163 161 164 169 168 164 163 163 160 160 162 164 172
327 324 322 322 321 320 318 315 313 312 311 311 311 309 309 308 305 303 302 300 298 297 295 291 288 285 283 281 277 273 269 265 267 268 266 265 265 264 264 263 262 261 261 262 262 263 263 260 260 262 260 256 255 257 261 265 271 279 282 280 277 277 268 224 171 159 161 160 161 163 161 163 168 168 167 167 166 164 164 163 159 159 162 164 169
328 325 324 323 322 319 317 315 314 314 314 313 312 312 311 309 307 305 304 303 302 299 295 291 289 287 284 281 277 275 272 269 270 272 270 268 267 266 266 266 266 264 262 261 259 259 260 260 261 262 260 256 255 258 262 266 274 280 284 284 277 274 274 246 184 162 162 162 160 165 167 166 170 171 167 165 166 168 167 164 162 164 168 172 174
329 327 325 323 321 319 319 318 316 316 316 315 314 313 312 310 309 308 306 306 304 300 297 296 293 289 285 281 280 279 277 274 274 274 274 271 270 268 266 266 266 264 263 262 260 258 259 261 262 261 261 261 259 260 263 269 278 280 284 288 280 280 285 258 195 171 167 165 162 169 171 168 170 172 171 169 168 167 167 166 168 170 173 177 178
331 328 325 324 322 321 322 321 319 317 317 317 316 315 313 312 311 311 309 308 305 300 299 298 293 286 282 279 279 281 281 279 278 276 275 274 273 271 267 265 264 263 262 260 259 259 259 260 264 264 264 263 261 262 264 267 277 279 282 289 286 288 293 260 197 175 170 168 167 172 172 170 172 175 174 172 169 168 170 173 175 174 173 174 174
332 329 326 325 325 324 324 323 321 319 319 319 317 316 315 314 314 313 312 309 305 303 303 301 297 294 291 286 282 281 281 282 282 280 278 278 277 274 268 265 263 262 260 258 258 260 261 261 263 264 265 265 262 262 264 265 271 277 281 287 289 293 287 245 196 177 173 172 171 172 173 174 174 173 174 173 173 174 175 175 173 167 158 154 157
334 331 328 327 326 325 324 323 322 321 321 320 318 317 317 317 316 316 315 312 312 312 310 308 307 305 301 296 292 287 285 286 287 286 284 282 280 275 270 267 265 262 260 257 256 258 258 258 259 260 262 264 263 261 262 262 265 272 278 283 289 295 278 229 196 181 176 175 174 173 174 176 175 173 174 175 175 172 166 161 159 156 152 151 151
334 331 328 327 326 325 324 323 322 322 321 320 318 318 318 318 318 320 319 318 318 316 314 312 311 308 304 300 299 295 290 290 292 292 291 287 281 273 267 266 265 262 260 258 256 256 254 252 253 256 259 261 262 261 258 259 260 263 274 279 287 294 272 220 197 188 180 176 176 176 175 176 176 175 175 174 172 167 157 153 159 161 162 163 154
334 331 328 326 325 325 325 324 322 321 320 320 318 318 319 319 319 321 321 318 317 317 316 315 312 310 305 299 299 298 295 295 297 298 296 293 286 275 266 263 263 263 262 262 261 259 258 256 253 255 258 259 261 260 255 254 254 255 266 275 282 289 264 212 193 192 185 178 177 176 175 175 176 175 173 171 170 168 165 165 169 168 167 171 169
333 330 326 324 324 325 326 325 323 322 320 319 318 319 320 320 320 321 320 319 318 319 318 315 312 310 305 300 301 303 301 300 302 303 301 298 291 279 266 259 262 263 262 262 263 261 260 259 256 256 259 259 260 258 252 249 249 251 260 267 272 281 257 208 189 190 187 179 176 174 172 174 174 172 171 171 172 174 174 172 171 170 173 176 172
332 327 323 323 325 326 328 328 326 324 321 320 320 320 321 322 322 323 322 321 321 321 319 316 314 313 310 306 304 303 303 304 307 310 310 308 303 293 275 257 254 260 261 259 261 261 258 257 257 260 262 261 258 255 250 247 246 248 254 255 256 271 261 212 188 187 183 174 172 172 170 172 173 170 169 171 175 179 179 175 174 175 177 175 173
332 327 324 325 327 330 332 331 328 326 324 323 322 322 323 324 324 324 324 324 323 322 320 318 316 315 313 308 304 303 305 307 309 313 316 316 316 313 299 270 253 253 256 257 259 261 259 259 261 262 263 263 259 253 248 246 245 244 248 251 251 263 271 233 192 183 176 166 165 169 169 167 168 168 169 173 178 181 180 179 179 181 180 177 176
330 328 327 329 331 333 334 334 332 330 329 328 326 324 326 328 326 326 327 326 323 321 320 320 318 314 310 307 309 310 310 309 311 315 317 318 318 318 314 302 282 266 255 251 255 259 258 259 261 260 259 260 259 254 248 245 244 242 246 254 256 262 273 254 199 177 170 162 159 162 165 163 164 168 172 176 179 181 182 183 184 185 184 183 182
331 331 332 334 336 337 337 337 336 334 333 332 329 326 328 330 330 330 329 327 324 321 320 320 317 310 306 310 317 316 314 315 316 317 317 317 316 316 315 314 309 297 273 254 250 253 255 257 259 258 258 258 255 252 248 244 244 245 248 257 260 262 268 254 200 172 166 162 158 159 164 165 165 170 175 179 181 182 184 186 187 187 188 189 189
335 335 337 338 338 339 339 339 339 338 338 336 332 329 330 331 331 332 331 328 325 321 320 319 313 304 309 320 319 315 318 321 318 316 316 315 317 318 315 311 312 312 304 282 263 255 253 254 256 256 255 256 254 250 248 246 246 248 252 257 259 261 261 240 194 169 163 163 161 162 166 170 172 175 179 182 184 185 186 187 189 189 189 191 192
338 338 339 339 339 340 341 342 342 341 341 340 336 332 331 332 333 333 332 330 325 321 319 315 305 300 313 319 315 316 325 326 320 318 318 316 315 316 315 313 311 311 310 303 289 275 261 252 250 253 253 252 251 249 247 248 249 249 251 254 256 257 249 221 188 169 164 165 167 168 172 177 180 181 181 182 182 183 184 185 187 188 189 189 188
339 340 341 341 342 343 343 344 344 342 342 342 339 334 333 332 331 332 334 332 325 320 317 313 307 310 315 313 314 323 329 328 325 323 319 317 317 316 315 315 313 309 305 299 296 299 289 262 247 247 250 248 246 245 245 247 249 250 251 253 254 250 235 208 186 175 171 171 174 176 177 180 181 180 178 177 178 179 181 181 181 184 185 180 178
340 341 343 342 343 345 345 345 343 342 343 342 340 337 336 334 332 334 335 330 322 322 324 322 320 317 308 308 322 330 330 329 328 324 321 321 322 320 316 313 311 308 305 298 294 303 308 290 259 248 249 248 245 244 245 247 249 251 253 255 253 242 224 202 189 185 180 176 177 177 175 174 173 171 171 174 177 180 181 179 177 180 181 175 171
341 342 344 343 344 347 347 346 344 342 342 341 340 339 338 336 336 337 337 331 325 329 333 331 328 325 319 323 332 332 330 332 329 325 326 328 326 321 316 313 309 302 294 290 292 295 300 301 287 263 248 243 240 240 242 246 248 250 253 256 250 234 218 204 194 190 184 177 170 163 161 164 166 168 171 175 178 180 180 179 178 179 176 171 170
342 345 346 345 346 348 348 347 345 343 340 340 340 340 340 338 335 336 341 340 337 339 341 339 337 335 335 339 341 335 332 335 334 333 334 332 328 323 317 312 310 303 290 279 278 283 284 287 287 271 245 232 232 234 234 237 242 245 248 251 243 224 210 202 197 191 182 172 162 156 159 165 168 170 172 175 178 179 179 179 179 177 174 173 176
342 345 347 347 347 347 346 346 347 344 340 339 339 340 343 346 342 340 344 347 348 349 349 349 349 347 344 347 348 343 339 339 340 340 341 338 335 332 326 321 322 319 307 287 271 270 273 269 269 266 245 226 224 227 225 227 233 238 242 242 233 215 201 197 196 190 181 172 167 166 167 168 168 170 173 175 176 177 179 180 178 175 175 179 182
340 342 346 348 346 346 346 346 346 345 342 341 340 339 342 346 351 352 352 352 355 356 356 357 358 357 354 353 352 349 347 347 348 349 348 347 346 344 340 341 345 342 327 297 265 254 261 263 260 259 248 233 224 224 221 221 227 235 238 232 220 207 198 195 193 188 181 176 173 172 171 170 170 172 175 176 174 176 179 180 178 177 180 184 183
339 342 347 348 346 346 347 347 347 345 343 343 344 344 343 344 348 352 356 358 360 359 358 359 0 1 1 1 359 356 353 352 355 358 356 354 355 355 353 356 3 9 13 7 319 283 288 290 278 262 252 236 223 224 224 223 226 230 233 226 211 202 198 194 189 185 182 179 176 173 173 174 173 173 175 175 174 174 176 178 180 181 183 186 184
347 348 350 348 345 346 348 350 348 345 343 343 345 347 349 348 345 345 350 357 2 4 3 2 360 0 3 5 4 3 359 357 0 2 2 3 2 0 1 8 17 23 28 28 16 358 349 346 339 320 303 278 241 227 224 226 230 230 227 222 210 202 199 194 187 184 184 182 178 175 175 175 173 172 174 175 174 173 175 179 181 182 182 185 185
2 360 355 348 344 345 349 351 349 347 346 347 347 349 350 351 348 344 345 351 357 360 0 1 1 1 3 6 7 8 5 3 4 3 4 7 6 5 12 22 25 25 25 22 12 3 1 359 355 347 339 329 308 268 234 225 227 229 228 222 212 203 197 191 185 184 185 183 180 176 174 173 172 171 173 175 175 176 178 179 180 180 182 184 184
15 15 10 1 353 350 352 355 355 352 350 349 351 352 352 352 352 350 347 348 350 350 350 353 357 359 2 6 8 8 7 7 7 6 7 9 8 10 18 23 19 14 14 12 4 1 2 360 354 348 343 337 334 330 304 255 232 224 224 222 212 200 191 186 186 186 184 182 181 178 175 173 173 174 174 175 177 178 179 181 182 183 184 183 181
20 21 20 11 0 357 359 1 2 358 353 351 354 356 357 357 356 353 351 350 351 349 347 348 352 357 4 10 10 8 7 7 7 7 10 11 12 15 19 16 4 359 1 359 354 353 356 357 355 351 347 343 343 343 339 322 282 240 224 218 209 195 185 185 189 189 184 183 183 180 177 176 175 175 176 177 179 181 183 183 184 184 183 181 179
22 24 22 10 358 0 7 9 9 5 1 1 2 2 2 3 1 358 355 353 354 353 350 350 353 357 2 8 9 6 3 5 9 14 17 16 16 17 15 7 1 1 0 358 356 352 350 354 357 356 354 352 351 348 345 343 337 309 243 215 202 191 187 189 191 189 186 185 183 179 178 178 177 176 177 179 181 184 185 184 184 183 182 180 178
35 35 26 7 355 4 13 13 13 14 13 12 9 6 5 4 3 2 360 356 356 357 354 354 356 356 356 0 4 4 5 9 14 16 16 15 14 13 9 5 3 2 0 0 0 357 354 357 0 360 359 358 357 354 350 348 351 348 316 224 199 191 192 193 192 190 188 185 182 180 180 179 178 178 179 180 182 185 186 185 185 182 180 179 179
57 55 43 17 7 15 19 18 17 17 17 15 12 9 6 3 2 2 1 358 358 359 357 357 359 358 354 357 4 6 8 11 12 10 9 10 9 7 5 4 4 3 2 2 2 1 1 2 2 2 3 3 2 1 357 353 356 359 354 313 205 194 192 191 191 191 190 186 182 181 181 181 180 181 182 183 184 185 186 186 186 184 181 182 186
60 59 52 37 28 29 28 25 23 21 18 15 12 9 6 2 359 358 359 360 0 0 360 359 359 359 358 1 7 10 9 8 8 8 9 9 7 6 5 4 3 1 1 2 3 3 3 2 2 3 5 5 5 5 2 360 1 5 8 7 354 203 194 191 190 191 190 188 185 183 183 183 183 183 185 187 187 187 187 187 188 187 186 187 189
66 62 57 47 40 38 36 31 27 24 22 18 15 11 7 2 359 357 358 1 1 0 1 0 359 0 3 5 8 13 14 11 9 10 12 11 8 6 4 3 2 2 2 2 3 3 3 3 5 5 6 7 8 7 6 5 6 7 11 15 16 18 173 191 193 193 192 190 188 185 185 185 184 185 188 190 190 190 190 189 188 189 190 192 192
76 70 62 53 47 43 38 33 29 28 25 23 20 15 9 4 2 360 358 1 1 1 1 359 359 3 7 7 8 13 17 15 12 11 11 12 11 9 5 2 2 2 2 3 4 4 4 5 7 8 8 9 9 9 9 8 8 8 10 13 16 20 23 24 183 194 194 192 190 188 187 187 186 188 191 191 189 189 191 190 190 190 192 194 194
86 78 69 59 52 48 43 36 33 32 29 25 21 17 12 9 8 4 1 2 3 3 1 359 359 2 6 9 13 16 17 16 13 11 9 10 11 10 6 4 4 5 5 6 7 8 8 9 10 11 11 11 11 12 12 10 9 10 11 12 13 16 18 18 18 16 203 196 193 190 188 187 189 191 192 191 190 190 191 191 190 191 192 193 194
93 86 80 70 60 54 50 44 39 35 32 30 26 21 17 14 11 9 6 3 3 2 2 0 359 0 3 8 13 15 14 13 12 10 9 10 12 12 9 7 7 7 7 8 9 10 11 12 13 13 13 14 15 16 16 15 15 14 14 13 14 14 13 13 12 11 7 214 200 195 190 189 191 193 192 191 191 191 192 192 191 191 192 191 191
104 95 86 77 68 60 53 49 45 41 37 34 31 27 22 18 14 10 7 4 2 2 2 2 1 1 2 5 8 10 10 10 10 11 12 13 13 14 14 13 11 9 8 9 12 13 13 13 14 14 13 14 15 17 17 17 18 18 18 17 15 14 12 10 12 17 28 72 195 196 193 192 194 194 193 192 192 192 193 194 193 192 192 190 190
108 99 86 77 68 60 55 51 46 43 41 37 32 27 24 20 15 11 8 6 4 2 2 3 3 2 1 3 6 8 9 9 10 12 13 14 14 15 17 18 17 15 13 12 14 16 16 16 16 16 14 14 15 17 18 18 19 19 20 20 19 18 18 19 24 32 44 67 140 179 188 192 193 194 194 193 192 194 195 195 195 194 193 192 192
101 89 78 73 65 57 53 51 46 43 43 39 33 29 25 20 17 13 10 8 7 5 4 5 5 3 1 3 5 6 7 8 10 12 12 13 14 15 17 20 21 20 19 17 17 18 19 19 18 17 17 16 17 18 19 19 19 20 20 21 22 22 25 29 34 40 49 64 94 137 162 171 177 184 186 183 184 187 188 189 191 192 191 191 190
103 85 68 64 62 55 51 49 44 43 42 38 34 32 28 23 19 14 11 9 8 6 6 6 6 4 2 2 3 5 7 9 11 12 13 14 15 16 18 21 22 22 22 22 20 19 20 20 19 19 19 19 20 20 20 20 20 21 21 22 23 27 33 38 40 44 52 64 78 96 116 129 140 155 166 171 173 175 175 176 180 182 183 184 184
108 84 58 56 54 49 48 48 43 41 40 37 33 32 30 26 22 16 12 10 8 7 7 7 6 5 3 2 3 6 8 9 10 11 12 13 15 17 19 22 23 24 24 24 20 19 20 20 20 20 20 21 22 22 22 21 21 22 22 23 25 31 38 43 45 48 54 61 69 77 84 90 95 103 119 140 156 163 165 167 170 172 172 173 173
135 69 44 48 48 43 45 47 42 40 39 35 30 30 30 27 23 18 12 9 8 7 7 7 7 6 4 2 3 5 6 7 8 10 11 12 15 17 19 21 22 24 25 25 22 20 20 20 20 20 22 23 24 24 24 23 22 22 23 25 29 34 40 44 47 51 55 57 62 67 72 75 77 76 78 89 106 120 132 143 153 161 165 167 169
170 71 35 40 41 37 39 43 40 39 38 32 27 28 28 26 23 18 12 8 7 6 5 6 8 8 7 5 5 5 6 7 9 10 11 12 14 15 17 19 20 22 25 25 24 22 21 21 20 20 21 24 26 26 26 25 24 23 25 29 33 37 41 43 46 50 55 57 59 62 65 67 68 67 65 68 75 82 89 98 108 120 131 141 152